When you browse on this site, cookies collect data to enhance your experience and personalize the content and advertising you see.
Visit our Privacy Policy to learn more. By continuing to use the site, you agree to this use of cookies and data.
  • In Romania
  • List of Countries
  • For 7 days
  • Water Temperature
  • Satellite Maps
  • Weather Map
  • Weather Widgets
  • user-avatar
    Login

    Hourly Weather Middlesbrough

    Today, 17 January, Thursday

    Time Temperature Precipitation Wind Pressure Humidity
    00:00 +1°C° 0 mm 6 mps 748 mmHg 80%
    01:00 0°C° 0.5 mm 7 mps 749 mmHg 79%
    02:00 0°C° 0.5 mm 8 mps 749 mmHg 78%
    03:00 0°C° 0.5 mm 10 mps 750 mmHg 77%
    04:00 0°C° 0.1 mm 9 mps 751 mmHg 73%
    05:00 -1°C° 0.1 mm 9 mps 752 mmHg 70%
    06:00 -3°C° 0 mm 9 mps 752 mmHg 67%
    07:00 -3°C° 0 mm 9 mps 753 mmHg 66%
    08:00 -2°C° 0 mm 10 mps 753 mmHg 65%
    09:00 -2°C° 0 mm 10 mps 754 mmHg 64%
    10:00 0°C° 0.1 mm 10 mps 755 mmHg 64%
    11:00 0°C° 0.1 mm 9 mps 755 mmHg 63%
    12:00 +1°C° 0.1 mm 9 mps 756 mmHg 62%
    13:00 +1°C° 0.1 mm 8 mps 757 mmHg 63%
    14:00 +1°C° 0.1 mm 8 mps 758 mmHg 65%
    15:00 +2°C° 0.1 mm 7 mps 758 mmHg 66%
    16:00 +2°C° 0 mm 6 mps 759 mmHg 68%
    17:00 +1°C° 0 mm 6 mps 759 mmHg 71%
    18:00 0°C° 0 mm 5 mps 760 mmHg 73%
    19:00 0°C° 0 mm 4 mps 760 mmHg 74%
    20:00 0°C° 0 mm 4 mps 760 mmHg 75%
    21:00 0°C° 0 mm 3 mps 761 mmHg 77%
    22:00 0°C° 0 mm 3 mps 761 mmHg 77%
    23:00 0°C° 0 mm 3 mps 761 mmHg 78%

    Tomorrow, 18 January, Friday

    Time Temperature Precipitation Wind Pressure Humidity
    00:00 +1°C° 0 mm 2 mps 761 mmHg 79%
    01:00 +1°C° 0 mm 2 mps 761 mmHg 79%
    02:00 +1°C° 0 mm 2 mps 761 mmHg 79%
    03:00 +2°C° 0 mm 1 mps 761 mmHg 79%
    04:00 +1°C° 0 mm 2 mps 761 mmHg 79%
    05:00 +1°C° 0 mm 2 mps 761 mmHg 78%
    06:00 +1°C° 0 mm 2 mps 760 mmHg 78%
    07:00 0°C° 0 mm 3 mps 760 mmHg 77%
    08:00 0°C° 0 mm 3 mps 760 mmHg 76%
    09:00 -1°C° 0 mm 4 mps 760 mmHg 75%
    10:00 0°C° 0 mm 4 mps 760 mmHg 71%
    11:00 0°C° 0 mm 5 mps 760 mmHg 66%
    12:00 +1°C° 0 mm 6 mps 759 mmHg 62%
    13:00 +1°C° 0 mm 6 mps 759 mmHg 62%
    14:00 +1°C° 0 mm 6 mps 758 mmHg 62%
    15:00 +1°C° 0 mm 6 mps 758 mmHg 63%
    16:00 +1°C° 0.1 mm 6 mps 758 mmHg 66%
    17:00 +1°C° 0.1 mm 6 mps 758 mmHg 68%
    18:00 0°C° 0.1 mm 7 mps 757 mmHg 71%
    19:00 0°C° 0.3 mm 7 mps 757 mmHg 74%
    20:00 0°C° 0.3 mm 7 mps 757 mmHg 77%
    21:00 0°C° 0.3 mm 8 mps 756 mmHg 80%
    22:00 0°C° 0.2 mm 8 mps 756 mmHg 82%
    23:00 0°C° 0.2 mm 8 mps 756 mmHg 83%

    Day after tomorrow, 19 January, Saturday

    Time Temperature Precipitation Wind Pressure Humidity
    00:00 -1°C° 0.2 mm 8 mps 756 mmHg 85%
    01:00 -1°C° 0.2 mm 8 mps 755 mmHg 86%
    02:00 -1°C° 0.2 mm 7 mps 755 mmHg 86%
    03:00 0°C° 0.2 mm 7 mps 755 mmHg 86%
    04:00 +1°C° 0 mm 6 mps 754 mmHg 88%
    05:00 +1°C° 0 mm 6 mps 754 mmHg 90%
    06:00 +1°C° 0 mm 6 mps 754 mmHg 91%
    07:00 +1°C° 0 mm 5 mps 754 mmHg 92%
    08:00 +1°C° 0 mm 5 mps 754 mmHg 92%
    09:00 +1°C° 0 mm 5 mps 754 mmHg 92%
    10:00 +1°C° 0 mm 4 mps 754 mmHg 91%
    11:00 +1°C° 0 mm 4 mps 754 mmHg 91%
    12:00 +1°C° 0 mm 4 mps 754 mmHg 90%
    13:00 +3°C° 0 mm 3 mps 754 mmHg 91%
    14:00 +4°C° 0 mm 2 mps 754 mmHg 92%
    15:00 +4°C° 0 mm 2 mps 754 mmHg 93%
    16:00 +4°C° 0.1 mm 2 mps 754 mmHg 93%
    17:00 +4°C° 0.1 mm 1 mps 754 mmHg 94%
    18:00 +4°C° 0.1 mm 1 mps 755 mmHg 95%
    19:00 +4°C° 0.1 mm 1 mps 755 mmHg 95%
    20:00 +4°C° 0.1 mm 1 mps 756 mmHg 95%
    21:00 +5°C° 0.1 mm 1 mps 756 mmHg 95%
    22:00 +4°C° 0 mm 1 mps 756 mmHg 95%
    23:00 +4°C° 0 mm 1 mps 757 mmHg 95%

    20 January, Sunday

    Time Temperature Precipitation Wind Pressure Humidity
    00:00 +4°C° 0 mm 1 mps 757 mmHg 95%
    01:00 +4°C° 0 mm 1 mps 757 mmHg 95%
    02:00 +4°C° 0 mm 1 mps 757 mmHg 95%
    03:00 +4°C° 0 mm 1 mps 757 mmHg 94%
    04:00 +4°C° 0 mm 1 mps 758 mmHg 94%
    05:00 +4°C° 0 mm 1 mps 758 mmHg 93%
    06:00 +3°C° 0 mm 1 mps 758 mmHg 93%
    07:00 +3°C° 0 mm 1 mps 759 mmHg 92%
    08:00 +3°C° 0 mm 1 mps 759 mmHg 91%
    09:00 +2°C° 0 mm 2 mps 760 mmHg 90%
    10:00 +3°C° 0 mm 2 mps 760 mmHg 88%
    11:00 +4°C° 0 mm 2 mps 761 mmHg 85%
    12:00 +5°C° 0 mm 2 mps 762 mmHg 83%
    13:00 +4°C° 0.1 mm 3 mps 762 mmHg 84%
    14:00 +3°C° 0.1 mm 5 mps 762 mmHg 86%
    15:00 +3°C° 0.1 mm 6 mps 763 mmHg 87%
    16:00 +2°C° 0.1 mm 6 mps 763 mmHg 83%
    17:00 +2°C° 0.1 mm 6 mps 764 mmHg 79%
    18:00 0°C° 0.1 mm 7 mps 765 mmHg 75%
    19:00 +1°C° 0 mm 6 mps 765 mmHg 76%
    20:00 -1°C° 0 mm 6 mps 766 mmHg 76%
    21:00 -1°C° 0 mm 6 mps 766 mmHg 76%
    22:00 -2°C° 0 mm 6 mps 767 mmHg 76%
    23:00 -2°C° 0 mm 6 mps 767 mmHg 76%

    21 January, Monday

    Time Temperature Precipitation Wind Pressure Humidity
    00:00 -2°C° 0 mm 6 mps 767 mmHg 76%
    01:00 -1°C° 0 mm 5 mps 767 mmHg 76%
    02:00 -1°C° 0 mm 5 mps 767 mmHg 76%
    03:00 -2°C° 0 mm 5 mps 767 mmHg 75%
    04:00 -2°C° 0 mm 4 mps 767 mmHg 75%
    05:00 -2°C° 0 mm 4 mps 767 mmHg 76%
    06:00 -2°C° 0 mm 4 mps 767 mmHg 76%
    07:00 -1°C° 0 mm 4 mps 767 mmHg 77%
    08:00 0°C° 0 mm 3 mps 767 mmHg 77%
    09:00 0°C° 0 mm 3 mps 767 mmHg 78%
    10:00 +1°C° 0 mm 3 mps 766 mmHg 76%
    11:00 +2°C° 0 mm 3 mps 766 mmHg 74%
    12:00 +3°C° 0 mm 3 mps 765 mmHg 73%
    13:00 +3°C° 0 mm 3 mps 764 mmHg 74%
    14:00 +3°C° 0 mm 4 mps 763 mmHg 76%
    15:00 +3°C° 0 mm 4 mps 762 mmHg 78%
    16:00 +1°C° 0.1 mm 5 mps 761 mmHg 79%
    17:00 +1°C° 0.1 mm 5 mps 760 mmHg 80%
    18:00 +1°C° 0.1 mm 6 mps 759 mmHg 81%
    19:00 +1°C° 0.3 mm 6 mps 758 mmHg 81%
    20:00 0°C° 0.3 mm 7 mps 756 mmHg 82%
    21:00 0°C° 0.3 mm 8 mps 755 mmHg 83%
    22:00 0°C° 0.3 mm 8 mps 754 mmHg 85%
    23:00 0°C° 0.3 mm 9 mps 752 mmHg 86%

    22 January, Tuesday

    Time Temperature Precipitation Wind Pressure Humidity
    00:00 0°C° 0.3 mm 9 mps 751 mmHg 88%
    01:00 0°C° 0.5 mm 9 mps 750 mmHg 89%
    02:00 -1°C° 0.5 mm 9 mps 749 mmHg 90%
    03:00 -1°C° 0.5 mm 8 mps 748 mmHg 91%
    04:00 -1°C° 0.4 mm 7 mps 747 mmHg 92%
    05:00 0°C° 0.4 mm 7 mps 747 mmHg 93%
    06:00 +1°C° 0.4 mm 6 mps 746 mmHg 94%
    07:00 0°C° 0.9 mm 5 mps 747 mmHg 94%
    08:00 0°C° 0.9 mm 4 mps 747 mmHg 95%
    09:00 +1°C° 0.9 mm 3 mps 747 mmHg 96%
    10:00 +1°C° 1 mm 3 mps 747 mmHg 96%
    11:00 +1°C° 1 mm 3 mps 747 mmHg 96%
    12:00 +1°C° 1 mm 3 mps 747 mmHg 97%
    13:00 +1°C° 0.9 mm 3 mps 747 mmHg 97%
    14:00 +1°C° 0.9 mm 3 mps 747 mmHg 97%
    15:00 +2°C° 0.9 mm 3 mps 747 mmHg 97%
    16:00 +2°C° 0.8 mm 3 mps 748 mmHg 97%
    17:00 +2°C° 0.8 mm 3 mps 748 mmHg 97%
    18:00 +2°C° 0.8 mm 3 mps 749 mmHg 97%
    19:00 +2°C° 0.3 mm 3 mps 749 mmHg 96%
    20:00 +3°C° 0.3 mm 2 mps 750 mmHg 96%
    21:00 +3°C° 0.3 mm 2 mps 751 mmHg 96%
    22:00 +3°C° 0.1 mm 2 mps 751 mmHg 96%
    23:00 +3°C° 0.1 mm 2 mps 751 mmHg 96%
    Show more